Kezdőlap
METAR-TAF:

METAR-TAF

Repülőterek :

Shepherd Bay, Nunavut, Kanada

földrajzi szélesség: 68-49N, földrajzi hosszúság: 093-26W, magasság: 51 m

Jelenlegi meteorológiai megfigyelések

A jelentés 28 perccel ezelõtt készült, 03:00 UTC
Kelet-délkeleti szél 12 kt széllökések: 18 kt
Hőmérséklet -39°C
Páratartalom 52%
Légköri nyomás 1020 hPa

METAR: CYUS 280300Z AUTO 12012G18KT ////SM //// NCD M39/M45 A3012

Idő: 20:28 (03:28 UTC)


TAF: hiányzik

Meteorológiai megfigyelések és előrejelzések több, mint 4000 repülőtéren (METAR és TAF jelentéseket).

A térképen piros és sárga pontok jelzik az elérhető meteorológiai állomásokat.

Mozgassa az egeret a pont fölött, hogy megjelenjen az állomás neve.

Azután kattintson az időjárási megfigyelések és előrejelzések megtekintéséhez.

A térkép megváltoztatása: kattintson a fekete keresztel jelölt zöld gombra ráközelítéshez, a vonallal jelölt zöld gombra távolításhoz, vagy a zöld nyilakra a szomszédos térképek eléréséhez.


METAR-TAF: